H1 CPF 2 NER 2024 5 1 9 122 01 glonass138 H2 1805301 9138 43508 2024 5 1 0 0 0 2024 5 4 23 45 0 900 1 1 0 0 0 1 H9 10 0 60431 0.00000 0 -11076660.894 -22741460.853 3383929.122 10 0 60431 900.00000 0 -10908550.009 -22129575.102 6533829.388 10 0 60431 1800.00000 0 -10475715.447 -21222661.649 9557017.938 10 0 60431 2700.00000 0 -9749280.163 -20071209.632 12394901.406 10 0 60431 3600.00000 0 -8711872.705 -18732424.846 14992496.309 10 0 60431 4500.00000 0 -7358609.007 -17267785.873 17299486.858 10 0 60431 5400.00000 0 -5697555.380 -15740442.759 19271191.447 10 0 60431 6300.00000 0 -3749652.642 -14212566.917 20869419.944 10 0 60431 7200.00000 0 -1548103.714 -12742762.545 22063206.077 10 0 60431 8100.00000 0 862750.939 -11383647.059 22829401.661 10 0 60431 9000.00000 0 3429024.608 -10179700.689 23153121.942 10 0 60431 9900.00000 0 6089277.800 -9165474.203 23028033.927 10 0 60431 10800.00000 0 8776832.743 -8364228.828 22456482.397 10 0 60431 11700.00000 0 11422314.635 -7787064.564 21449450.964 10 0 60431 12600.00000 0 13956315.722 -7432573.044 20026358.437 10 0 60431 13500.00000 0 16312073.026 -7287029.336 18214693.594 10 0 60431 14400.00000 0 18428049.576 -7325114.894 16049494.315 10 0 60431 15300.00000 0 20250312.454 -7511141.632 13572679.974 10 0 60431 16200.00000 0 21734608.951 -7800726.124 10832248.791 10 0 60431 17100.00000 0 22848054.173 -8142843.855 7881354.612 10 0 60431 18000.00000 0 23570359.218 -8482177.104 4777280.237 10 0 60431 18900.00000 0 23894547.961 -8761657.290 1580326.741 10 0 60431 19800.00000 0 23827131.823 -8925093.918 -1647359.761 10 0 60431 20700.00000 0 23387734.588 -8919778.121 -4843000.748 10 0 60431 21600.00000 0 22608182.707 -8698949.481 -7944413.142 10 0 60431 22500.00000 0 21531099.188 -8224020.277 -10891227.610 10 0 60431 23400.00000 0 20208060.426 -7466461.416 -13626072.569 10 0 60431 24300.00000 0 18697393.981 -6409268.566 -16095699.812 10 0 60431 25200.00000 0 17061710.608 -5047944.843 -18252028.947 10 0 60431 26100.00000 0 15365275.134 -3390957.029 -20053089.526 10 0 60431 27000.00000 0 13671327.493 -1459644.650 -21463842.073 10 0 60431 27900.00000 0 12039467.074 712415.424 -22456861.787 10 0 60431 28800.00000 0 10523210.687 3080563.139 -23012871.667 10 0 60431 29700.00000 0 9167826.684 5590680.534 -23121114.916 10 0 60431 30600.00000 0 8008535.843 8181220.685 -22779559.778 10 0 60431 31500.00000 0 7069153.861 10785555.889 -21994933.297 10 0 60431 32400.00000 0 6361231.438 13334547.379 -20782583.816 10 0 60431 33300.00000 0 5883726.780 15759229.642 -19166175.352 10 0 60431 34200.00000 0 5623222.876 17993497.664 -17177220.206 10 0 60431 35100.00000 0 5554678.848 19976685.385 -14854459.242 10 0 60431 36000.00000 0 5642682.252 21655928.287 -12243102.209 10 0 60431 36900.00000 0 5843148.100 22988212.079 -9393943.170 10 0 60431 37800.00000 0 6105391.684 23942022.701 -6362368.575 10 0 60431 38700.00000 0 6374486.589 24498529.605 -3207277.509 10 0 60431 39600.00000 0 6593807.449 24652253.868 10064.521 10 0 60431 40500.00000 0 6707649.345 24411194.343 3227215.720 10 0 60431 41400.00000 0 6663812.772 23796407.773 6381768.766 10 0 60431 42300.00000 0 6416044.688 22841061.573 9412558.526 10 0 60431 43200.00000 0 5926232.501 21589000.002 12260843.388 10 0 60431 44100.00000 0 5166258.354 20092884.537 14871437.587 10 0 60431 45000.00000 0 4119435.492 18411986.817 17193773.012 10 0 60431 45900.00000 0 2781466.060 16609726.650 19182870.623 10 0 60431 46800.00000 0 1160879.638 14751057.795 20800203.515 10 0 60431 47700.00000 0 -721066.576 12899810.247 22014435.804 10 0 60431 48600.00000 0 -2831022.802 11116099.128 22802023.939 10 0 60431 49500.00000 0 -5124691.778 9453907.325 23147669.591 10 0 60431 50400.00000 0 -7548437.732 7958941.617 23044615.861 10 0 60431 51300.00000 0 -10041294.043 6666850.669 22494781.338 10 0 60431 52200.00000 0 -12537287.872 5601878.304 21508729.263 10 0 60431 53100.00000 0 -14967986.854 4776007.575 20105471.913 10 0 60431 54000.00000 0 -17265163.521 4188630.975 18312113.162 10 0 60431 54900.00000 0 -19363467.881 3826760.343 16163335.042 10 0 60431 55800.00000 0 -21202997.706 3665767.745 13700737.063 10 0 60431 56700.00000 0 -22731659.835 3670626.353 10972039.871 10 0 60431 57600.00000 0 -23907223.922 3797599.347 8030167.552 10 0 60431 58500.00000 0 -24698982.355 3996305.809 4932225.602 10 0 60431 59400.00000 0 -25088946.230 4212076.367 1738393.892 10 0 60431 60300.00000 0 -25072526.368 4388498.705 -1489244.036 10 0 60431 61200.00000 0 -24658669.964 4470044.603 -4687912.217 10 0 60431 62100.00000 0 -23869446.394 4404666.315 -7795369.943 10 0 60431 63000.00000 0 -22739099.059 4146251.055 -10751131.120 10 0 60431 63900.00000 0 -21312602.948 3656828.159 -13497650.501 10 0 60431 64800.00000 0 -19643788.638 2908433.897 -15981452.708 10 0 60431 65700.00000 0 -17793111.950 1884553.402 -18154181.142 10 0 60431 66600.00000 0 -15825163.540 581077.242 -19973545.560 10 0 60431 67500.00000 0 -13806023.598 -993269.168 -21404149.412 10 0 60431 68400.00000 0 -11800573.223 -2817042.650 -22418180.625 10 0 60431 69300.00000 0 -9869875.604 -4856741.966 -22995952.363 10 0 60431 70200.00000 0 -8068736.902 -7067983.241 -23126283.528 10 0 60431 71100.00000 0 -6443548.730 -9397142.493 -22806711.954 10 0 60431 72000.00000 0 -5030502.049 -11783396.914 -22043536.606 10 0 60431 72900.00000 0 -3854246.320 -14161079.893 -20851688.466 10 0 60431 73800.00000 0 -2927048.779 -16462251.600 -19254433.047 10 0 60431 74700.00000 0 -2248487.598 -18619377.940 -17282910.754 10 0 60431 75600.00000 0 -1805690.069 -20568006.226 -14975524.379 10 0 60431 76500.00000 0 -1574104.022 -22249326.074 -12377185.958 10 0 60431 77400.00000 0 -1518768.283 -23612508.857 -9538437.950 10 0 60431 78300.00000 0 -1596027.023 -24616728.389 -6514466.120 10 0 60431 79200.00000 0 -1755614.248 -25232778.956 -3364023.622 10 0 60431 80100.00000 0 -1943019.236 -25444223.677 -148287.515 10 0 60431 81000.00000 0 -2102032.083 -25248025.992 3070329.772 10 0 60431 81900.00000 0 -2177361.140 -24654638.731 6229390.743 10 0 60431 82800.00000 0 -2117211.304 -23687547.954 9267641.272 10 0 60431 83700.00000 0 -1875714.087 -22382291.489 12126193.774 10 0 60431 84600.00000 0 -1415106.781 -20784993.949 14749662.449 10 0 60431 85500.00000 0 -707568.830 -18950479.940 17087229.036 10 0 60432 0.00000 0 263361.918 -16940044.673 19093618.933 10 0 60432 900.00000 0 1501853.458 -14818973.774 20729970.666 10 0 60432 1800.00000 0 2999362.752 -12653918.004 21964580.127 10 0 60432 2700.00000 0 4734757.738 -10510227.928 22773509.687 10 0 60432 3600.00000 0 6674972.997 -8449361.176 23141048.405 10 0 60432 4500.00000 0 8776173.575 -6526468.050 23060016.102 10 0 60432 5400.00000 0 10985379.991 -4788254.980 22531905.483 10 0 60432 6300.00000 0 13242488.486 -3271213.640 21566859.413 10 0 60432 7200.00000 0 15482604.162 -2000288.611 20183483.338 10 0 60432 8100.00000 0 17638591.454 -988038.377 18408495.643 10 0 60432 9000.00000 0 19643737.096 -234324.235 16276221.641 10 0 60432 9900.00000 0 21434415.529 273460.136 13827939.821 10 0 60432 10800.00000 0 22952646.094 559628.138 11111091.775 10 0 60432 11700.00000 0 24148435.254 658940.713 8178370.026 10 0 60432 12600.00000 0 24981805.474 614900.738 5086700.628 10 0 60432 13500.00000 0 25424425.073 477673.430 1896139.784 10 0 60432 14400.00000 0 25460769.701 301720.806 -1331294.258 10 0 60432 15300.00000 0 25088765.596 143250.844 -4532831.008 10 0 60432 16200.00000 0 24319886.555 57590.102 -7646175.147 10 0 60432 17100.00000 0 23178699.632 96592.206 -10610726.805 10 0 60432 18000.00000 0 21701878.060 306193.290 -13368769.954 10 0 60432 18900.00000 0 19936722.531 724219.390 -15866604.743 10 0 60432 19800.00000 0 17939252.945 1378540.119 -18055600.829 10 0 60432 20700.00000 0 15771950.985 2285648.192 -19893150.387 10 0 60432 21600.00000 0 13501248.603 3449726.166 -21343501.783 10 0 60432 22500.00000 0 11194868.103 4862240.998 -22378457.401 10 0 60432 23400.00000 0 8919125.591 6502084.513 -22977922.075 10 0 60432 24300.00000 0 6736310.791 8336254.680 -23130291.648 10 0 60432 25200.00000 0 4702252.656 10321049.726 -22832674.495 10 0 60432 26100.00000 0 2864172.125 12403725.436 -22090942.144 10 0 60432 27000.00000 0 1258910.922 14524546.478 -20919608.512 10 0 60432 27900.00000 0 -88390.715 16619146.104 -19341540.534 10 0 60432 28800.00000 0 -1165113.539 18621095.548 -17387506.261 10 0 60432 29700.00000 0 -1971443.469 20464575.766 -15095569.563 10 0 60432 30600.00000 0 -2520110.404 22087039.810 -12510343.517 10 0 60432 31500.00000 0 -2835594.596 23431754.575 -9682117.334 10 0 60432 32400.00000 0 -2952835.835 24450115.765 -6665874.086 10 0 60432 33300.00000 0 -2915501.566 25103639.451 -3520218.623 10 0 60432 34200.00000 0 -2773888.476 25365547.248 -306236.875 10 0 60432 35100.00000 0 -2582547.340 25221879.227 2913691.022 10 0 60432 36000.00000 0 -2397732.375 24672088.567 6077100.529 10 0 60432 36900.00000 0 -2274783.472 23729093.678 9122651.759 10 0 60432 37800.00000 0 -2265552.208 22418786.238 11991314.431 10 0 60432 38700.00000 0 -2415980.444 20779016.228 14627505.965 10 0 60432 39600.00000 0 -2763933.624 18858096.748 16980161.113 10 0 60432 40500.00000 0 -3337380.053 16712891.153 19003713.072 10 0 60432 41400.00000 0 -4152992.764 14406562.075 20658967.912 10 0 60432 42300.00000 0 -5215232.955 12006075.671 21913856.289 10 0 60432 43200.00000 0 -6515953.895 9579564.190 22744048.786 10 0 60432 44100.00000 0 -8034542.711 7193655.499 23133423.769 10 0 60432 45000.00000 0 -9738595.196 4910879.411 23074379.256 10 0 60432 45900.00000 0 -11585096.867 2787257.350 22567983.027 10 0 60432 46800.00000 0 -13522062.574 870174.242 21623957.968 10 0 60432 47700.00000 0 -15490567.925 -803379.903 20260502.465 10 0 60432 48600.00000 0 -17427089.439 -2208126.490 18503948.557 10 0 60432 49500.00000 0 -19266057.230 -3331318.742 16388263.360 10 0 60432 50400.00000 0 -20942514.746 -4173032.175 13954402.280 10 0 60432 51300.00000 0 -22394775.145 -4745913.300 11249525.286 10 0 60432 52200.00000 0 -23566963.404 -5074397.191 8326090.346 10 0 60432 53100.00000 0 -24411337.416 -5193426.895 5240840.770 10 0 60432 54000.00000 0 -24890290.074 -5146728.716 2053705.582 10 0 60432 54900.00000 0 -24977947.276 -4984716.403 -1173365.904 10 0 60432 55800.00000 0 -24661293.445 -4762113.249 -4377612.347 10 0 60432 56700.00000 0 -23940775.980 -4535393.395 -7496687.459 10 0 60432 57600.00000 0 -22830361.954 -4360151.621 -10469881.162 10 0 60432 58500.00000 0 -21357043.685 -4288514.180 -13239310.054 10 0 60432 59400.00000 0 -19559813.179 -4366701.656 -15751052.985 10 0 60432 60300.00000 0 -17488148.116 -4632848.391 -17956208.721 10 0 60432 61200.00000 0 -15200072.771 -5115172.109 -19811854.289 10 0 60432 62100.00000 0 -12759875.284 -5830572.370 -21281884.874 10 0 60432 63000.00000 0 -10235577.073 -6783718.119 -22337718.650 10 0 60432 63900.00000 0 -7696260.552 -7966663.763 -22958852.815 10 0 60432 64800.00000 0 -5209366.987 -9359010.633 -23133260.234 10 0 60432 65700.00000 0 -2838077.251 -10928607.600 -22857619.341 10 0 60432 66600.00000 0 -638884.553 -12632761.740 -22137373.240 10 0 60432 67500.00000 0 1340540.252 -14419908.439 -20986617.377 10 0 60432 68400.00000 0 3063102.686 -16231670.991 -19427818.375 10 0 60432 69300.00000 0 4503586.041 -18005223.315 -17491369.938 10 0 60432 70200.00000 0 5649447.398 -19675856.738 -15214994.825 10 0 60432 71100.00000 0 6501076.830 -21179643.201 -12643004.824 10 0 60432 72000.00000 0 7071510.863 -22456083.224 -9825433.473 10 0 60432 72900.00000 0 7385614.287 -23450627.609 -6817058.655 10 0 60432 73800.00000 0 7478766.629 -24116967.253 -3676334.396 10 0 60432 74700.00000 0 7395110.368 -24418995.192 -464252.971 10 0 60432 75600.00000 0 7185436.240 -24332358.859 2756840.292 10 0 60432 76500.00000 0 6904796.069 -23845537.811 5924456.270 10 0 60432 77400.00000 0 6609944.723 -22960402.133 8977171.729 10 0 60432 78300.00000 0 6356719.762 -21692228.516 11855816.009 10 0 60432 79200.00000 0 6197469.545 -20069173.630 14504611.949 10 0 60432 80100.00000 0 6178638.339 -18131227.010 16872249.354 10 0 60432 81000.00000 0 6338610.027 -15928687.125 18912870.887 10 0 60432 81900.00000 0 6705901.020 -13520223.922 20586952.114 10 0 60432 82800.00000 0 7297778.296 -10970607.974 21862059.554 10 0 60432 83700.00000 0 8119360.665 -8348199.859 22713472.985 10 0 60432 84600.00000 0 9163241.369 -5722303.026 23124660.736 10 0 60432 85500.00000 0 10409648.520 -3160488.831 23087599.357 10 0 60433 0.00000 0 11827137.550 -726003.656 22602931.787 10 0 60433 900.00000 0 13373788.838 1524636.896 21679960.579 10 0 60433 1800.00000 0 14998859.996 3543764.798 20336476.565 10 0 60433 2700.00000 0 16644827.830 5294304.802 18598424.673 10 0 60433 3600.00000 0 18249734.201 6751072.999 16499412.834 10 0 60433 4500.00000 0 19749739.627 7901576.461 14080072.150 10 0 60433 5400.00000 0 21081778.417 8746280.768 11387279.516 10 0 60433 6300.00000 0 22186204.550 9298334.413 8473256.649 10 0 60433 7200.00000 0 23009317.159 9582761.760 5394562.168 10 0 60433 8100.00000 0 23505659.046 9635158.625 2210995.725 10 0 60433 9000.00000 0 23639990.638 9499945.636 -1015564.691 10 0 60433 9900.00000 0 23388855.083 9228253.457 -4222369.438 10 0 60433 10800.00000 0 22741667.160 8875529.831 -7347023.879 10 0 60433 11700.00000 0 21701278.722 8498970.471 -10328710.344 10 0 60433 12600.00000 0 20283995.522 8154883.556 -13109380.587 10 0 60433 13500.00000 0 18519043.537 7896100.554 -15634894.544 10 0 60433 14400.00000 0 16447506.404 7769544.211 -17856082.295 10 0 60433 15300.00000 0 14120777.975 7814057.801 -19729707.739 10 0 60433 16200.00000 0 11598594.644 8058588.550 -21219314.729 10 0 60433 17100.00000 0 8946729.711 8520802.943 -22295938.900 10 0 60433 18000.00000 0 6234446.336 9206193.108 -22938671.328 10 0 60433 18900.00000 0 3531815.485 10107712.518 -23135063.228 10 0 60433 19800.00000 0 907010.782 11205956.734 -22881364.180 10 0 60433 20700.00000 0 -1576307.138 12469881.721 -22182589.686 10 0 60433 21600.00000 0 -3861408.219 13858029.624 -21052417.204 10 0 60433 22500.00000 0 -5900612.548 15320210.368 -19512913.166 10 0 60433 23400.00000 0 -7657024.576 16799568.325 -17594096.660 10 0 60433 24300.00000 0 -9105811.062 18234947.039 -15333348.684 10 0 60433 25200.00000 0 -10234971.035 19563452.512 -12774678.727 10 0 60433 26100.00000 0 -11045567.412 20723107.177 -9967863.287 10 0 60433 27000.00000 0 -11551412.583 21655482.944 -6967473.390 10 0 60433 27900.00000 0 -11778223.156 22308202.610 -3831810.279 10 0 60433 28800.00000 0 -11762281.279 22637204.507 -621770.356 10 0 60433 29700.00000 0 -11548660.609 22608675.336 2600338.307 10 0 60433 30600.00000 0 -11189093.090 22200570.127 5772004.668 10 0 60433 31500.00000 0 -10739567.601 21403655.709 8831724.979 10 0 60433 32400.00000 0 -10257762.497 20222034.106 11720191.173 10 0 60433 33300.00000 0 -9800420.692 18673124.038 14381434.573 10 0 60433 34200.00000 0 -9420778.046 16787101.322 16763903.143 10 0 60433 35100.00000 0 -9166153.221 14605821.379 18821452.098 10 0 60433 36000.00000 0 -9075800.141 12181268.382 20514229.505 10 0 60433 36900.00000 0 -9179113.037 9573595.021 21809440.599 10 0 60433 37800.00000 0 -9494259.223 6848833.480 22681976.977 10 0 60433 38700.00000 0 -10027296.942 4076371.583 23114899.253 10 0 60433 39600.00000 0 -10771815.511 1326297.543 23099764.433 10 0 60433 40500.00000 0 -11709113.395 -1333277.938 22636791.967 10 0 60433 41400.00000 0 -12808907.668 -3838812.616 21734865.182 10 0 60433 42300.00000 0 -14030546.300 -6133730.493 20411367.664 10 0 60433 43200.00000 0 -15324673.810 -8170528.064 18691856.974 10 0 60433 44100.00000 0 -16635281.912 -9912502.404 16609580.983 10 0 60433 45000.00000 0 -17902060.413 -11335029.829 14204845.020 10 0 60433 45900.00000 0 -19062950.724 -12426342.190 11524240.888 10 0 60433 46800.00000 0 -20056795.391 -13187768.642 8619751.559 10 0 60433 47700.00000 0 -20825972.414 -13633432.802 5547748.061 10 0 60433 48600.00000 0 -21318903.178 -13789418.113 2367897.470 10 0 60433 49500.00000 0 -21492327.618 -13692436.626 -857997.005 10 0 60433 50400.00000 0 -21313249.535 -13388057.546 -4067201.038 10 0 60433 51300.00000 0 -20760468.655 -12928570.761 -7197275.371 10 0 60433 52200.00000 0 -19825633.240 -12370576.260 -10187298.504 10 0 60433 53100.00000 0 -18513767.322 -11772402.246 -12979061.072 10 0 60433 54000.00000 0 -16843248.924 -11191462.140 -15518207.701 10 0 60433 54900.00000 0 -14845238.922 -10681663.395 -17755303.148 10 0 60433 55800.00000 0 -12562583.635 -10290978.760 -19646801.198 10 0 60433 56700.00000 0 -10048236.500 -10059283.634 -21155896.899 10 0 60433 57600.00000 0 -7363264.528 -10016551.697 -22253245.314 10 0 60433 58500.00000 0 -4574522.769 -10181485.586 -22917532.719 10 0 60433 59400.00000 0 -1752093.765 -10560640.726 -23135889.339 10 0 60433 60300.00000 0 1033401.268 -11148079.414 -22904135.936 10 0 60433 61200.00000 0 3713507.622 -11925569.680 -22226859.858 10 0 60433 62100.00000 0 6224546.291 -12863320.330 -21117319.546 10 0 60433 63000.00000 0 8510019.106 -13921220.961 -19597179.773 10 0 60433 63900.00000 0 10522710.417 -15050534.362 -17696083.208 10 0 60433 64800.00000 0 12226398.872 -16195969.706 -15451066.973 10 0 60433 65700.00000 0 13597109.264 -17298048.903 -12905835.872 10 0 60433 66600.00000 0 14623853.801 -18295666.152 -10109906.758 10 0 60433 67500.00000 0 15308833.608 -19128732.655 -7117640.979 10 0 60433 68400.00000 0 15667093.935 -19740794.940 -3987184.034 10 0 60433 69300.00000 0 15725649.455 -20081516.369 -779333.382 10 0 60433 70200.00000 0 15522118.196 -20108917.356 2443643.255 10 0 60433 71100.00000 0 15102923.172 -19791279.996 5619215.958 10 0 60433 72000.00000 0 14521138.718 -19108637.050 8685803.382 10 0 60433 72900.00000 0 13834073.199 -18053782.793 11583962.777 10 0 60433 73800.00000 0 13100690.477 -16632763.257 14257536.414 10 0 60433 74700.00000 0 12378978.962 -14864825.224 16654732.587 10 0 60433 75600.00000 0 11723378.855 -12781825.797 18729120.908 10 0 60433 76500.00000 0 11182375.440 -10427126.694 20440523.425 10 0 60433 77400.00000 0 10796359.087 -7854018.592 21755785.221 10 0 60433 78300.00000 0 10595841.310 -5123740.117 22649410.466 10 0 60433 79200.00000 0 10600101.278 -2303172.527 23104052.448 10 0 60433 80100.00000 0 10816319.347 537695.585 23110848.673 10 0 60433 81000.00000 0 11239233.985 3328429.930 22669594.869 10 0 60433 81900.00000 0 11851336.849 6000829.680 21788754.468 10 0 60433 82800.00000 0 12623598.556 8491514.436 20485302.973 10 0 60433 83700.00000 0 13516695.663 10744312.925 18784409.482 10 0 60433 84600.00000 0 14482688.511 12712355.229 16718960.491 10 0 60433 85500.00000 0 15467080.595 14359782.222 14328934.049 10 0 60434 0.00000 0 16411173.853 15663001.342 11660635.419 10 0 60434 900.00000 0 17254622.002 16611437.111 8765806.454 10 0 60434 1800.00000 0 17938073.495 17207743.374 5700628.752 10 0 60434 2700.00000 0 18405794.282 17467470.621 2524634.581 10 0 60434 3600.00000 0 18608157.888 17418200.542 -700449.987 10 0 60434 4500.00000 0 18503897.227 17098185.058 -3911908.374 10 0 60434 5400.00000 0 18062021.645 16554547.313 -7047259.150 10 0 60434 6300.00000 0 17263316.694 15841121.025 -10045479.368 10 0 60434 7200.00000 0 16101361.646 15016020.100 -12848200.824 10 0 60434 8100.00000 0 14583020.225 14139042.050 -15400854.946 10 0 60434 9000.00000 0 12728382.343 13269015.872 -17653743.117 10 0 60434 9900.00000 0 10570158.033 12461207.416 -19563010.763 10 0 60434 10800.00000 0 8152547.989 11764892.691 -21091505.735 10 0 60434 11700.00000 0 5529637.339 11221202.240 -22209503.967 10 0 60434 12600.00000 0 2763379.357 10861328.030 -22895288.219 10 0 60434 13500.00000 0 -78746.917 10705168.669 -23135568.831 10 0 60434 14400.00000 0 -2926307.654 10760469.990 -22925738.619 10 0 60434 15300.00000 0 -5708606.805 11022496.944 -22269957.365 10 0 60434 16200.00000 0 -8357388.363 11474250.125 -21181064.719 10 0 60434 17100.00000 0 -10809436.249 12087217.229 -19680323.666 10 0 60434 18000.00000 0 -13008964.103 12822627.119 -17796999.925 10 0 60434 18900.00000 0 -14909696.318 13633152.964 -15567785.868 10 0 60434 19800.00000 0 -16476554.625 14464992.053 -13036080.424 10 0 60434 20700.00000 0 -17686881.187 15260234.024 -10251139.359 10 0 60434 21600.00000 0 -18531148.632 15959417.117 -7267112.714 10 0 60434 22500.00000 0 -19013129.014 16504164.287 -4141988.438 10 0 60434 23400.00000 0 -19149516.387 16839787.651 -936463.121 10 0 60434 24300.00000 0 -18969020.581 16917751.270 2287237.932 10 0 60434 25200.00000 0 -18510971.854 16697888.305 5466568.140 10 0 60434 26100.00000 0 -17823496.507 16150279.093 8539870.919 10 0 60434 27000.00000 0 -16961341.277 15256711.066 11447571.340 10 0 60434 27900.00000 0 -15983438.791 14011659.021 14133325.259 10 0 60434 28800.00000 0 -14950316.814 12422744.447 16545104.020 10 0 60434 29700.00000 0 -13921460.234 10510654.292 18636194.378 10 0 60434 30600.00000 0 -12952736.249 8308521.983 20366095.083 10 0 60434 31500.00000 0 -12093990.318 5860795.748 21701293.659 10 0 60434 32400.00000 0 -11386912.987 3221640.290 22615909.267 10 0 60434 33300.00000 0 -10863266.343 452936.984 23092190.026 10 0 60434 34200.00000 0 -10543543.764 -2378035.810 23120855.778 10 0 60434 35100.00000 0 -10436118.733 -5201147.666 22701279.986 10 0 60434 36000.00000 0 -10536918.250 -7946082.352 21841507.207 10 0 60434 36900.00000 0 -10829634.717 -10545016.302 20558105.421 10 0 60434 37800.00000 0 -11286467.916 -12935199.599 18875855.321 10 0 60434 38700.00000 0 -11869366.657 -15061333.347 16827281.580 10 0 60434 39600.00000 0 -12531718.796 -16877645.368 14452034.021 10 0 60434 40500.00000 0 -13220419.389 -18349578.250 11796129.446 10 0 60434 41400.00000 0 -13878230.610 -19455019.503 8911067.709 10 0 60434 42300.00000 0 -14446334.356 -20185022.315 5852838.299 10 0 60434 43200.00000 0 -14866969.881 -20543986.562 2680836.111 10 0 60434 44100.00000 0 -15086044.682 -20549292.226 -543292.765 10 0 60434 45000.00000 0 -15055607.463 -20230400.497 -3756852.608 10 0 60434 45900.00000 0 -14736077.462 -19627460.402 -6897323.131 10 0 60434 46800.00000 0 -14098134.393 -18789479.917 -9903583.446 10 0 60434 47700.00000 0 -13124187.480 -17772139.138 -12717110.119 10 0 60434 48600.00000 0 -11809359.829 -16635338.453 -15283125.026 10 0 60434 49500.00000 0 -10161944.936 -15440585.978 -17551669.726 10 0 60434 50400.00000 0 -8203314.594 -14248335.318 -19478584.640 10 0 60434 51300.00000 0 -5967280.806 -13115386.781 -21026373.421 10 0 60434 52200.00000 0 -3498937.392 -12092462.193 -22164935.412 10 0 60434 53100.00000 0 -853029.092 -11222055.969 -22872151.843 10 0 60434 54000.00000 0 1908084.190 -10536653.050 -23134314.544 10 0 60434 54900.00000 0 4716783.389 -10057388.563 -22946389.147 10 0 60434 55800.00000 0 7502768.523 -9793205.171 -22312108.036 10 0 60434 56700.00000 0 10195751.964 -9740542.868 -21243891.708 10 0 60434 57600.00000 0 12728154.908 -9883573.419 -19762600.489 10 0 60434 58500.00000 0 15037695.091 -10194968.550 -17897121.825 10 0 60434 59400.00000 0 17069758.557 -10637168.528 -15683801.568 10 0 60434 60300.00000 0 18779457.392 -11164096.648 -13165730.598 10 0 60434 61200.00000 0 20133288.561 -11723246.399 -10391901.005 10 0 60434 62100.00000 0 21110325.784 -12258052.422 -7416248.565 10 0 60434 63000.00000 0 21702896.026 -12710444.533 -4296600.425 10 0 60434 63900.00000 0 21916713.776 -13023476.418 -1093548.826 10 0 60434 64800.00000 0 21770469.109 -13143917.658 2130726.933 10 0 60434 65700.00000 0 21294888.305 -13024699.408 5313667.169 10 0 60434 66600.00000 0 20531307.899 -12627110.401 8393543.487 10 0 60434 67500.00000 0 19529823.197 -11922650.596 11310651.961 10 0 60434 68400.00000 0 18347089.899 -10894464.327 14008464.876 10 0 60434 69300.00000 0 17043871.642 -9538292.485 16434719.089 10 0 60434 70200.00000 0 15682436.523 -7862903.452 18542420.545 10 0 60434 71100.00000 0 14323911.584 -5889984.147 20290746.325 10 0 60434 72000.00000 0 13025705.588 -3653494.958 21645827.610 10 0 60434 72900.00000 0 11839107.293 -1198514.382 22581399.356 10 0 60434 73800.00000 0 10807158.844 1420379.839 23079304.920 10 0 60434 74700.00000 0 9962892.417 4141127.291 23129846.505 10 0 60434 75600.00000 0 9328003.095 6896517.078 22731974.955 10 0 60434 76500.00000 0 8912012.954 9616740.555 21893315.255 10 0 60434 77400.00000 0 8711961.081 12232060.271 20630026.826 10 0 60434 78300.00000 0 8712632.505 14675485.824 18966500.630 10 0 60434 79200.00000 0 8887316.728 16885346.691 16934897.934 10 0 60434 80100.00000 0 9199064.500 18807655.863 14574538.513 10 0 60434 81000.00000 0 9602390.557 20398166.408 11931148.935 10 0 60434 81900.00000 0 10045351.173 21624035.305 9055984.365 10 0 60434 82800.00000 0 10471909.313 22465024.895 6004840.037 10 0 60434 83700.00000 0 10824487.622 22914191.300 2836970.976 10 0 60434 84600.00000 0 11046601.131 22978030.558 -386059.304 10 0 60434 85500.00000 0 11085457.660 22676075.873 -3601578.549 99